Retour au catalogue

LINUSS2

ActifScienceGEO
NORAD 55247·PAYLOAD·🇺🇸 United States

Lancé Nov 1, 2022 depuis Cape Canaveral Space Force Station

Loading…

TLE

FraisSource: Space-Track

Époque: Sep 14, 2026, 12:27 UTC

1 55247U 22144H   26257.51880396 -.00000057  00000-0  00000-0 0  9991
2 55247   5.5952  63.4507 0005469 304.4808   9.7124  0.99052622 12592

Suivez LINUSS2 en temps réel avec AllMySat

Download on the App Store